Time,TemperatureF,DewpointF,PressureIn,WindDirection,WindDirectionDegrees,WindSpeedMPH,WindSpeedGustMPH,Humidity,HourlyPrecipIn,Conditions,Clouds,dailyrainin,SoftwareType,DateUTC
2013-02-04 00:00:00,52.3,46.7,30.10,West,271,0.0,0.0,81,0.00,,---,0.00,VWS V14.00,2013-02-04 08:00:00,
2013-02-04 00:30:00,52.8,47.5,30.10,West,278,0.0,1.0,82,0.00,,---,0.00,VWS V14.00,2013-02-04 08:30:00,
2013-02-04 01:00:00,52.4,47.7,30.09,West,278,0.0,1.0,84,0.00,,---,0.00,VWS V14.00,2013-02-04 09:00:00,
2013-02-04 01:30:00,51.1,46.4,30.09,West,279,0.0,1.0,84,0.00,,---,0.00,VWS V14.00,2013-02-04 09:30:00,
2013-02-04 02:00:00,51.4,47.0,30.09,West,279,0.0,0.0,85,0.00,,---,0.00,VWS V14.00,2013-02-04 10:00:00,
2013-02-04 02:30:00,51.2,46.8,30.09,West,281,0.0,1.0,85,0.00,,---,0.00,VWS V14.00,2013-02-04 10:30:00,
2013-02-04 03:00:00,50.1,45.8,30.09,West,281,0.0,0.0,85,0.00,,---,0.00,VWS V14.00,2013-02-04 11:00:00,
2013-02-04 03:30:00,49.5,45.5,30.09,West,281,1.0,1.0,86,0.00,,---,0.00,VWS V14.00,2013-02-04 11:30:00,
2013-02-04 04:00:00,49.6,45.6,30.09,WNW,283,0.0,1.0,86,0.00,,---,0.00,VWS V14.00,2013-02-04 12:00:00,
2013-02-04 04:30:00,48.9,44.9,30.09,WNW,283,0.0,1.0,86,0.00,,---,0.00,VWS V14.00,2013-02-04 12:30:00,
2013-02-04 05:00:00,48.2,44.2,30.09,WNW,283,0.0,1.0,86,0.00,,---,0.00,VWS V14.00,2013-02-04 13:00:00,
2013-02-04 05:30:00,47.9,44.2,30.09,WNW,283,0.0,0.0,87,0.00,,---,0.00,VWS V14.00,2013-02-04 13:30:00,
2013-02-04 06:00:00,47.5,44.1,30.09,WNW,283,0.0,1.0,88,0.00,,---,0.00,VWS V14.00,2013-02-04 14:00:00,
2013-02-04 06:30:00,47.9,44.8,30.09,WNW,283,0.0,0.0,89,0.00,,---,0.00,VWS V14.00,2013-02-04 14:30:00,
2013-02-04 07:00:00,48.1,44.7,30.11,NE,39,0.0,2.0,88,0.00,,---,0.00,VWS V14.00,2013-02-04 15:00:00,
2013-02-04 07:30:00,49.2,46.7,30.12,NE,41,0.0,2.0,91,0.00,,---,0.00,VWS V14.00,2013-02-04 15:30:00,
2013-02-04 08:00:00,52.9,49.8,30.13,NE,41,0.0,1.0,89,0.00,,---,0.00,VWS V14.00,2013-02-04 16:00:00,
2013-02-04 08:30:00,54.5,51.0,30.14,West,279,0.0,3.0,88,0.00,,---,0.00,VWS V14.00,2013-02-04 16:30:00,
2013-02-04 09:00:00,56.3,51.2,30.14,West,274,0.0,2.0,83,0.00,,---,0.00,VWS V14.00,2013-02-04 17:00:00,
2013-02-04 09:30:00,56.1,51.3,30.14,West,267,1.0,2.0,84,0.00,,---,0.00,VWS V14.00,2013-02-04 17:30:00,
2013-02-04 10:00:00,56.6,52.5,30.14,West,266,0.0,2.0,86,0.00,,---,0.00,VWS V14.00,2013-02-04 18:00:00,
2013-02-04 10:30:00,58.0,52.5,30.13,South,186,0.0,4.0,82,0.00,,---,0.00,VWS V14.00,2013-02-04 18:30:00,
2013-02-04 10:31:00,58.3,52.8,30.14,WSW,247,2.0,2.0,82,0.00,,---,0.00,VWS V14.00,2013-02-04 18:31:00,
2013-02-04 11:00:00,56.3,51.9,30.13,SSW,197,3.0,4.0,85,0.00,,---,0.00,VWS V14.00,2013-02-04 19:00:00,
2013-02-04 11:30:00,58.0,52.5,30.13,South,186,0.0,4.0,82,0.00,,---,0.00,VWS V14.00,2013-02-04 19:30:00,
2013-02-04 12:00:00,57.6,52.2,30.11,WSW,238,0.0,2.0,82,0.00,,---,0.00,VWS V14.00,2013-02-04 20:00:00,
2013-02-04 12:30:00,56.1,52.0,30.10,West,271,0.0,4.0,86,0.00,,---,0.00,VWS V14.00,2013-02-04 20:30:00,
2013-02-04 13:00:00,56.6,52.2,30.08,West,269,2.0,4.0,85,0.00,,---,0.00,VWS V14.00,2013-02-04 21:00:00,
2013-02-04 13:30:00,56.0,52.2,30.07,West,272,0.0,6.0,87,0.00,,---,0.00,VWS V14.00,2013-02-04 21:30:00,
2013-02-04 14:00:00,55.5,52.3,30.06,West,269,0.0,6.0,89,0.00,,---,0.00,VWS V14.00,2013-02-04 22:00:00,
2013-02-04 14:30:00,54.4,52.1,30.05,West,268,3.0,7.0,92,0.00,,---,0.00,VWS V14.00,2013-02-04 22:30:00,
2013-02-04 15:00:00,54.2,52.2,30.04,West,273,3.0,9.0,93,0.00,,---,0.00,VWS V14.00,2013-02-04 23:00:00,
2013-02-04 15:30:00,53.7,51.7,30.04,West,267,6.0,8.0,93,0.00,,---,0.00,VWS V14.00,2013-02-04 23:30:00,
2013-02-04 16:00:00,53.3,51.9,30.03,West,271,3.0,5.0,95,0.00,,---,0.00,VWS V14.00,2013-02-05 00:00:00,
2013-02-04 16:01:00,53.7,52.0,30.04,West,276,4.0,8.0,94,0.00,,---,0.00,VWS V14.00,2013-02-05 00:01:00,
2013-02-04 16:30:00,53.4,51.7,30.03,West,277,1.0,6.0,94,0.00,,---,0.00,VWS V14.00,2013-02-05 00:30:00,
2013-02-04 17:00:00,53.3,51.9,30.03,West,271,3.0,5.0,95,0.00,,---,0.00,VWS V14.00,2013-02-05 01:00:00,
2013-02-04 17:30:00,52.7,51.0,30.04,West,271,0.0,3.0,94,0.00,,---,0.00,VWS V14.00,2013-02-05 01:30:00,
2013-02-04 18:00:00,52.4,51.0,30.06,West,270,0.0,5.0,95,0.00,,---,0.00,VWS V14.00,2013-02-05 02:00:00,
2013-02-04 18:30:00,52.4,51.0,30.07,West,268,0.0,5.0,95,0.00,,---,0.00,VWS V14.00,2013-02-05 02:30:00,
2013-02-04 19:00:00,52.6,51.2,30.07,WSW,250,0.0,2.0,95,0.00,,---,0.00,VWS V14.00,2013-02-05 03:00:00,
2013-02-04 19:30:00,53.1,51.7,30.09,WSW,243,0.0,2.0,95,0.00,,---,0.00,VWS V14.00,2013-02-05 03:30:00,
2013-02-04 20:00:00,53.0,51.3,30.13,WSW,243,0.0,2.0,94,0.00,,---,0.00,VWS V14.00,2013-02-05 04:00:00,
2013-02-04 20:01:00,52.9,51.2,30.11,WSW,251,0.0,3.0,94,0.00,,---,0.00,VWS V14.00,2013-02-05 04:01:00,
2013-02-04 20:30:00,52.8,51.1,30.12,WSW,243,0.0,2.0,94,0.00,,---,0.00,VWS V14.00,2013-02-05 04:30:00,
2013-02-04 21:00:00,53.0,51.3,30.13,WSW,243,0.0,2.0,94,0.00,,---,0.00,VWS V14.00,2013-02-05 05:00:00,
2013-02-04 21:30:00,53.1,51.4,30.13,WSW,243,0.0,0.0,94,0.00,,---,0.00,VWS V14.00,2013-02-05 05:30:00,
2013-02-04 21:31:00,52.9,51.2,30.13,WSW,243,0.0,1.0,94,0.00,,---,0.00,VWS V14.00,2013-02-05 05:31:00,
2013-02-04 22:00:00,53.1,51.4,30.13,WSW,243,0.0,1.0,94,0.00,,---,0.00,VWS V14.00,2013-02-05 06:00:00,
2013-02-04 22:30:00,53.1,51.4,30.13,WSW,243,0.0,0.0,94,0.00,,---,0.00,VWS V14.00,2013-02-05 06:30:00,
2013-02-04 23:00:00,53.0,51.3,30.12,WSW,240,0.0,1.0,94,0.00,,---,0.00,VWS V14.00,2013-02-05 07:00:00,
2013-02-04 23:30:00,52.8,51.1,30.12,ESE,109,1.0,3.0,94,0.00,,---,0.00,VWS V14.00,2013-02-05 07:30:00,